SCP
0 0 0 0 0 0 0 0 0 0 0 0 0 0 0 0 0 0 0 0 0 0 0 0 1 1 1 1 1 1 0 0 0 0 0 0 0 0 -0 -0 -0 0 -0 -0 -0 -0 -0 -0 -0
0 0 0 0 0 0 0 0 0 0 0 0 0 0 0 0 0 0 0 0 0 0 0 0 0 1 1 1 0 1 1 1 0 0 0 0 0 0 0 -0 -0 0 -0 -0 -0 -0 -0 -0 -0
0 0 0 0 0 0 0 0 0 0 0 0 0 0 0 0 0 0 0 0 0 0 0 0 1 1 1 1 0 0 1 1 0 0 0 0 0 0 0 0 0 0 0 -0 -0 -0 -0 -0 -0
0 0 0 0 0 0 0 0 0 0 0 0 0 0 0 0 0 0 0 0 1 0 1 0 0 1 1 1 0 0 0 0 0 0 0 0 0 0 0 0 0 0 0 0 0 -0 0 0 0
0 0 0 0 0 0 0 0 0 0 0 0 0 0 0 0 0 0 0 0 1 0 0 0 1 0 1 1 1 1 0 0 0 0 0 0 0 0 0 0 0 0 0 0 0 0 0 0 0
0 0 0 0 0 0 0 0 0 0 0 0 0 0 0 0 0 1 1 1 0 0 0 0 1 1 1 1 1 1 0 0 0 0 0 0 0 0 0 0 0 0 0 0 0 0 0 0 0
0 0 0 0 0 0 0 0 0 0 0 0 0 0 0 0 0 0 0 1 1 1 1 1 1 1 1 1 1 1 1 1 1 0 0 0 0 0 0 0 0 0 0 0 0 0 0 0 0
0 0 0 0 0 0 0 0 0 0 0 0 0 0 0 0 0 0 0 0 0 0 0 1 1 1 1 0 0 0 0 1 1 0 0 0 0 0 0 0 0 0 0 0 0 0 0 0 0
0 0 0 0 0 0 0 0 0 0 0 0 0 0 0 0 0 0 0 0 0 0 0 0 0 0 0 0 0 0 0 0 0 0 0 0 0 0 0 0 0 0 0 0 0 0 0 0 0
0 0 0 0 0 0 0 0 0 0 0 0 0 0 0 0 0 0 0 0 0 0 0 0 0 0 0 0 0 0 0 0 0 0 0 0 0 0 0 0 0 0 0 0 0 0 0 0 0
0 0 0 0 0 0 0 0 0 0 0 0 0 0 0 0 0 0 0 0 0 0 0 0 0 0 0 0 0 0 0 0 0 0 0 0 0 0 0 0 0 0 0 0 0 0 0 0 0
0 0 0 0 0 0 0 0 0 0 0 0 0 0 0 0 0 0 0 0 0 0 0 0 0 0 0 0 0 0 0 0 0 0 0 0 0 0 0 0 0 0 0 0 0 0 0 0 0
0 0 0 0 0 0 0 0 0 0 0 0 0 0 0 0 0 0 0 0 0 0 0 0 0 0 0 0 0 0 0 0 0 0 0 0 0 0 0 0 0 0 0 0 0 0 0 0 0
0 0 0 0 0 0 0 0 0 0 0 -0 0 0 0 0 0 0 0 0 0 0 0 0 0 0 0 0 0 0 0 0 0 0 0 0 0 0 0 0 0 0 0 0 0 0 0 0 0
0 0 0 0 0 0 0 0 0 0 0 0 -0 -0 0 -0 0 0 0 0 0 0 0 0 0 0 0 0 0 0 0 0 0 0 0 0 0 0 0 0 0 0 0 0 0 0 0 0 0
0 0 0 0 0 0 0 0 0 0 0 0 0 -0 -0 -0 -0 0 0 0 0 0 0 0 0 0 0 0 0 0 0 0 0 0 0 0 0 0 0 0 0 0 0 0 0 0 0 0 0
0 0 0 0 0 0 0 0 0 0 0 0 0 0 0 0 0 0 0 0 0 0 0 0 0 0 0 0 0 0 0 0 0 0 0 0 0 0 0 0 0 0 0 0 0 0 0 0 0
0 0 0 0 0 0 0 0 0 0 0 0 0 0 0 0 0 0 0 0 0 0 0 0 0 0 0 0 0 0 0 0 0 0 0 0 0 0 0 0 0 0 0 0 0 0 0 0 0
0 0 0 0 0 0 0 0 0 0 0 0 0 0 0 0 0 0 0 0 0 0 0 0 0 0 0 0 0 0 0 0 0 0 0 0 0 0 0 0 0 0 0 0 0 0 0 0 0
-0 0 0 0 -0 0 0 0 0 0 0 0 0 0 0 0 0 0 0 0 0 0 0 0 0 0 0 0 0 0 0 0 0 0 0 0 0 0 0 0 0 0 0 0 0 0 0 0 0
-0 -0 0 0 -0 0 0 0 0 0 0 0 0 0 0 0 0 0 0 0 0 0 0 0 0 0 0 0 0 0 0 0 0 0 0 0 0 0 0 0 0 0 0 0 0 0 0 0 0
-0 -0 -0 0 0 0 0 0 0 -0 0 0 0 0 0 0 0 0 0 0 0 0 0 0 0 0 0 0 0 0 0 0 0 0 0 0 0 0 0 0 0 0 0 0 0 0 0 0 0
-0 0 -0 0 0 0 0 0 0 0 0 0 0 -0 0 0 0 0 0 0 0 0 0 0 0 0 0 0 0 0 0 0 0 0 0 0 0 0 0 0 0 0 0 0 0 0 0 0 0
0 -0 0 0 0 0 0 0 0 0 0 0 0 -0 0 0 0 0 0 0 0 0 0 0 0 0 0 0 0 0 0 0 0 0 0 0 0 0 0 0 0 0 0 0 0 0 0 0 0
-0 0 0 0 0 0 0 0 0 -0 -0 0 0 0 0 0 0 0 0 0 0 0 0 0 0 0 0 0 0 0 0 0 0 0 0 0 0 0 0 0 0 0 0 0 0 0 0 0 0
0 0 0 0 0 0 0 0 0 -0 -0 -0 -0 0 0 0 0 0 0 0 0 0 0 0 0 0 0 0 0 0 0 0 0 0 0 0 0 0 0 0 0 0 0 0 0 0 0 0 0
0 0 0 0 0 0 0 0 0 -0 -0 -0 0 0 0 0 0 0 0 0 0 0 0 0 0 0 0 0 0 0 0 0 0 0 0 0 0 0 0 0 0 0 0 0 0 0 0 0 0
0 0 0 0 0 0 0 0 0 -0 0 -0 -0 0 0 -0 -0 -0 -0 -0 0 0 0 0 0 0 0 0 0 0 0 0 0 0 0 0 -0 0 0 0 0 0 0 0 0 0 0 0 0
0 0 0 0 0 0 0 0 0 0 0 -0 0 0 -0 -0 -0 -0 -0 0 0 0 0 0 0 0 0 0 0 -0 0 0 0 -0 -0 -0 -0 0 0 0 0 0 0 0 0 0 0 0 0
0 0 0 0 0 0 0 0 0 0 0 0 0 0 0 0 0 0 0 0 0 0 0 0 0 0 0 0 -0 -0 0 0 0 0 0 0 0 0 0 0 0 0 0 0 0 0 0 0 0
Wind_Speed_500mb
20 20 16 10 6 7 4 12 6 11 7 11 16 18 21 23 10 8 22 26 17 34 46 48 46 43 40 37 34 34 33 31 30 29 25 24 27 30 32 26 29 36 30 32 34 35 29 33 33
27 20 15 9 8 5 9 9 18 16 14 41 39 28 13 10 6 10 26 23 18 28 36 45 46 42 38 36 33 32 32 32 32 31 27 23 27 30 31 31 37 33 35 36 35 28 32 38 34
26 17 12 8 7 11 9 9 19 16 41 48 19 29 13 7 8 34 19 29 33 30 29 44 46 42 38 34 31 30 32 34 34 32 31 28 27 31 35 37 36 38 38 33 28 28 39 40 36
15 9 7 5 13 9 9 14 9 29 40 20 31 18 3 15 26 25 28 29 31 27 24 42 42 39 35 30 27 27 29 33 35 36 35 33 31 35 37 41 39 39 35 33 27 34 42 40 35
13 8 3 4 9 8 10 15 29 20 21 40 42 17 14 21 21 26 27 30 28 29 28 40 40 37 34 29 26 24 26 30 36 38 38 36 35 40 39 43 40 38 35 35 33 39 39 36 35
7 6 4 9 8 9 12 22 17 12 31 38 27 13 12 14 29 31 33 27 23 25 33 36 39 35 34 29 24 23 24 25 35 39 40 38 38 41 39 45 40 34 37 40 43 41 37 35 35
9 6 6 4 5 7 5 15 13 15 15 20 37 10 13 24 17 20 23 25 24 27 35 41 42 37 33 28 25 25 25 21 34 35 37 38 41 43 37 45 41 39 36 47 45 40 36 36 35
3 6 4 4 3 9 8 27 22 27 20 37 19 14 12 36 20 18 26 28 28 27 32 32 39 39 37 34 31 30 28 22 32 32 34 38 43 44 42 46 49 40 43 47 44 39 37 36 34
5 3 4 7 6 7 23 18 15 28 22 39 13 30 33 18 17 23 23 23 26 30 29 35 37 38 38 34 30 31 30 27 24 30 32 37 47 46 49 46 42 41 43 43 43 39 37 34 32
6 6 13 9 4 7 28 20 40 18 32 14 24 26 20 18 4 22 23 23 25 33 34 43 46 41 41 34 26 30 34 33 28 26 33 39 48 53 53 47 42 44 44 44 47 41 37 33 30
7 9 7 12 29 33 19 42 21 21 10 25 33 47 41 34 23 8 25 28 26 27 35 40 47 45 42 31 33 35 41 43 33 25 27 41 52 57 50 49 48 50 52 50 47 44 39 34 30
4 10 14 13 29 25 13 28 23 34 44 39 51 45 46 40 33 28 18 26 34 31 31 39 44 45 41 30 30 33 35 36 36 9 19 43 55 60 56 56 57 56 60 57 51 44 37 35 32
3 7 18 22 32 36 38 28 24 56 59 53 48 56 51 48 41 33 28 20 22 26 32 39 44 44 42 42 40 35 36 43 38 38 36 41 48 69 61 58 57 60 59 59 53 45 39 36 33
12 17 24 21 34 30 21 45 18 31 51 63 65 66 65 55 53 44 32 21 18 29 41 42 39 35 47 52 50 50 29 36 42 61 63 46 51 58 52 58 60 56 60 58 53 46 41 37 34
16 11 15 22 19 13 29 37 31 60 67 76 68 72 72 66 60 56 47 35 26 28 39 46 41 42 35 61 58 65 57 46 41 67 62 52 54 50 35 54 62 60 53 53 50 46 41 39 35
8 5 9 9 2 18 14 27 24 59 55 63 68 72 69 70 54 46 47 40 24 31 33 42 47 49 27 28 43 56 57 55 52 46 65 57 54 58 58 50 52 60 58 56 54 50 48 43 40
8 6 9 14 8 9 12 15 12 40 54 53 61 70 69 68 64 52 41 44 32 30 36 33 32 36 44 36 41 40 37 36 47 43 55 44 47 58 62 63 53 58 63 62 61 55 50 46 43
6 9 11 16 10 15 29 44 37 38 41 43 52 62 69 71 68 62 47 44 39 37 35 44 39 36 33 44 38 40 35 46 42 51 52 53 72 69 67 68 62 55 61 64 59 54 50 50 44
8 11 21 37 31 31 37 43 41 47 43 44 47 59 63 64 55 53 55 46 39 42 38 47 44 39 36 43 43 43 42 47 52 51 71 69 72 67 70 66 63 66 69 66 60 56 56 53 46
16 18 36 30 26 7 25 43 38 36 34 51 47 55 57 62 58 54 46 33 37 41 39 45 52 54 46 43 40 34 34 41 47 53 62 72 77 77 74 73 71 71 70 68 65 63 59 52 48
8 10 22 25 33 25 29 25 13 20 34 57 48 52 53 48 54 45 37 40 41 39 37 39 43 48 43 45 40 36 36 35 39 52 65 68 79 79 72 71 71 79 75 72 69 64 57 56 52
12 15 29 27 18 7 7 14 14 13 11 8 26 38 41 35 20 32 29 28 28 33 37 40 40 41 44 48 50 47 41 33 37 49 65 53 64 75 77 72 72 76 78 73 70 66 62 57 58
19 2 23 19 17 5 4 4 15 13 16 17 13 24 13 12 19 23 27 14 11 15 20 30 32 28 33 40 47 52 49 53 42 53 69 67 61 73 75 75 75 78 76 70 69 68 69 64 60
19 15 12 3 3 4 5 8 10 9 19 22 14 10 14 19 21 14 8 7 11 18 13 11 9 14 21 17 30 46 43 49 48 46 65 82 62 61 72 80 75 67 63 63 63 66 64 54 49
5 9 7 8 2 8 9 3 12 22 27 13 8 24 20 22 22 17 10 9 12 19 20 12 8 7 12 24 34 15 23 19 26 46 57 68 51 61 63 69 74 62 68 66 58 55 57 58 56
7 4 4 8 5 5 5 7 6 18 28 30 35 33 36 30 28 25 20 22 19 17 20 22 13 12 11 17 4 13 13 21 23 30 54 59 45 41 62 45 52 61 63 58 58 61 55 55 64
5 7 6 6 7 2 3 6 9 19 24 26 27 35 34 35 34 33 28 29 34 28 26 24 15 10 5 5 6 11 15 9 3 10 13 7 24 37 34 30 39 51 59 58 49 59 59 58 58
11 7 4 3 8 6 1 5 7 19 18 15 21 24 29 31 35 38 34 32 34 35 33 28 23 14 8 9 10 8 5 1 8 12 10 12 14 15 24 28 40 39 52 61 47 49 53 49 47
3 9 7 5 5 4 6 5 10 9 9 10 18 27 27 34 35 34 31 33 30 39 44 34 30 23 16 14 15 11 14 6 16 16 22 26 29 32 32 35 43 38 50 56 52 55 52 58 59
6 8 5 4 9 4 4 6 10 9 6 8 20 23 30 36 32 33 30 34 35 39 36 33 26 20 20 19 18 10 8 8 11 11 13 17 20 22 27 32 33 32 34 41 59 69 59 62 64
Wind_Direction_500mb
168 168 168 132 84 68 238 243 283 303 270 214 281 305 270 268 234 234 144 160 150 166 173 176 179 179 177 174 176 178 180 179 178 178 178 177 174 171 170 164 155 144 154 151 147 145 146 140 137
162 149 144 102 107 153 258 245 265 248 292 322 320 310 266 226 195 177 164 186 190 167 171 181 182 180 177 175 177 184 189 189 188 187 186 189 184 178 176 164 155 154 159 162 166 162 151 141 135
155 142 137 136 164 183 212 227 242 307 311 316 301 292 266 189 169 169 179 176 177 175 180 186 183 181 180 179 180 188 196 199 197 195 190 196 192 183 178 165 162 166 176 174 173 165 146 144 141
140 122 112 133 213 240 220 287 337 319 323 321 335 317 255 174 162 182 180 181 181 179 182 185 183 185 185 183 184 192 202 207 203 199 194 193 196 188 176 169 171 176 188 182 174 160 149 148 148
102 111 110 237 233 268 279 270 290 291 295 297 311 289 281 186 184 176 171 178 189 178 172 180 185 188 188 188 189 192 196 201 203 200 199 196 196 191 179 174 181 185 191 187 175 163 156 154 153
94 94 101 239 247 273 288 301 309 272 297 310 313 281 302 205 176 175 177 187 200 192 177 181 189 190 190 191 192 189 189 201 204 202 200 201 198 193 189 179 182 186 192 181 173 167 162 159 159
104 83 215 236 247 304 263 329 303 293 316 317 330 280 303 194 208 202 198 192 202 198 187 182 187 193 191 191 191 187 188 190 192 201 203 203 199 193 193 182 186 187 185 172 171 169 166 165 166
95 87 251 238 189 274 272 336 326 4 315 329 332 346 4 333 225 214 212 198 199 203 202 204 193 193 193 191 189 185 190 188 192 198 203 205 197 196 201 193 196 186 176 173 173 171 169 168 170
79 67 252 236 180 254 324 353 326 334 315 330 23 11 352 8 256 215 205 211 202 214 205 213 216 205 200 195 191 192 190 190 193 199 203 204 199 196 207 203 198 189 171 182 178 175 173 172 173
137 155 220 225 307 297 308 312 321 334 321 300 316 317 347 1 278 262 238 221 229 225 223 220 223 214 208 199 201 206 209 196 196 203 207 210 200 199 214 202 201 180 181 186 184 181 180 178 179
184 206 237 288 302 303 305 304 308 297 274 292 304 313 318 326 349 1 260 261 237 237 223 225 223 217 193 233 242 228 210 208 198 202 216 217 211 207 216 198 198 187 189 189 186 187 186 184 183
268 249 270 277 296 311 310 304 291 271 268 289 294 302 301 301 309 326 342 269 257 248 229 226 227 228 240 220 237 238 228 226 209 202 235 230 220 217 219 204 203 194 197 190 192 193 191 190 190
204 326 321 305 297 297 301 273 267 274 281 286 285 284 291 290 292 299 309 306 252 241 231 229 231 243 233 225 230 222 235 228 235 236 291 246 242 216 208 209 205 205 201 194 195 196 196 199 200
324 317 302 299 293 287 279 282 288 279 285 293 289 285 284 283 281 288 289 299 273 250 244 241 241 243 239 231 228 231 252 239 247 228 244 236 235 230 202 204 204 211 207 197 198 201 203 206 209
318 313 311 263 269 264 268 275 265 282 281 282 280 281 281 281 281 279 271 277 257 271 248 243 238 237 246 238 239 237 245 250 262 241 238 226 227 230 222 209 211 216 212 205 202 204 205 207 213
326 13 324 293 312 258 186 268 268 274 274 276 279 280 278 277 275 275 265 260 244 256 251 242 237 244 238 251 247 246 242 243 245 222 219 215 228 234 227 212 219 227 219 210 207 205 208 213 216
344 275 267 299 227 263 177 281 289 298 286 262 265 270 277 280 278 270 267 246 250 250 250 237 229 235 235 249 244 231 232 223 222 208 202 197 224 228 235 233 222 228 218 210 209 209 215 219 222
302 297 263 269 280 308 285 280 273 270 275 270 264 265 272 276 274 274 272 252 252 242 256 236 240 236 234 228 233 234 238 238 237 223 201 213 220 224 223 227 231 224 211 209 208 212 218 221 225
241 253 265 272 269 285 266 270 272 271 262 258 257 265 270 276 273 266 275 264 247 240 245 239 231 238 232 219 215 223 229 233 236 237 228 227 223 220 223 222 230 223 216 213 215 217 219 221 224
247 274 279 280 269 264 285 281 281 267 251 240 241 256 266 271 270 266 271 248 225 241 235 227 231 238 244 237 234 233 236 238 239 235 225 231 225 222 221 229 225 215 217 222 223 218 218 221 219
245 222 266 260 299 263 275 286 275 277 250 240 241 251 260 268 272 258 220 220 216 222 224 231 236 243 247 245 238 240 241 239 239 239 235 233 224 222 218 222 220 218 220 220 215 215 218 221 216
290 221 247 267 293 294 103 297 305 313 326 203 226 240 251 259 239 198 200 198 210 214 217 222 230 237 239 253 245 246 246 256 266 243 241 242 230 220 217 215 224 220 217 216 218 217 220 221 217
239 208 289 291 277 332 193 254 274 344 1 350 258 243 214 179 203 191 196 194 212 210 213 211 215 227 239 251 250 245 251 264 268 251 243 244 244 224 219 219 221 221 217 222 226 223 225 226 231
261 303 283 283 307 321 254 149 300 6 321 312 327 145 136 121 180 162 112 167 195 215 229 268 259 260 250 254 249 253 254 252 244 250 246 238 246 222 222 225 231 215 223 224 234 234 233 235 239
145 281 310 345 288 251 344 51 256 333 348 332 209 129 120 101 102 105 111 142 190 220 230 194 192 246 269 256 245 214 230 247 247 274 251 236 246 245 225 222 230 230 234 234 232 236 235 238 238
294 260 288 304 313 344 78 257 358 346 358 40 67 83 94 91 94 91 105 113 119 155 173 194 200 227 232 248 249 197 222 273 261 266 229 233 237 221 208 198 203 215 227 237 243 244 247 255 253
340 283 216 261 237 51 277 294 249 4 10 38 50 73 80 85 87 84 86 90 97 117 116 135 148 139 116 67 158 78 74 137 194 275 236 226 230 220 216 241 249 234 229 239 245 241 248 247 248
204 335 304 282 332 315 100 313 344 345 344 26 56 51 81 94 92 86 79 82 80 90 96 97 99 92 50 19 16 25 298 239 267 245 223 252 262 249 218 248 270 268 253 253 255 254 239 244 248
316 293 235 258 199 283 325 354 351 338 344 19 68 70 73 89 91 85 90 75 77 78 73 71 70 60 57 45 45 9 349 329 273 272 258 263 268 267 261 261 259 271 255 249 252 253 256 251 252
217 257 242 156 309 36 118 4 8 15 51 63 80 84 79 87 95 93 84 74 65 64 68 66 72 70 65 57 55 36 14 346 331 312 298 285 282 279 272 267 264 255 250 251 249 255 255 260 263
Wind_Speed_850mb
20 20 16 10 6 7 4 12 6 11 7 11 16 18 21 23 10 8 22 26 17 34 46 48 46 43 40 37 34 34 33 31 30 29 25 24 27 30 32 26 29 36 30 32 34 35 29 33 33
27 20 15 9 8 5 9 9 18 16 14 41 39 28 13 10 6 10 26 23 18 28 36 45 46 42 38 36 33 32 32 32 32 31 27 23 27 30 31 31 37 33 35 36 35 28 32 38 34
26 17 12 8 7 11 9 9 19 16 41 48 19 29 13 7 8 34 19 29 33 30 29 44 46 42 38 34 31 30 32 34 34 32 31 28 27 31 35 37 36 38 38 33 28 28 39 40 36
15 9 7 5 13 9 9 14 9 29 40 20 31 18 3 15 26 25 28 29 31 27 24 42 42 39 35 30 27 27 29 33 35 36 35 33 31 35 37 41 39 39 35 33 27 34 42 40 35
13 8 3 4 9 8 10 15 29 20 21 40 42 17 14 21 21 26 27 30 28 29 28 40 40 37 34 29 26 24 26 30 36 38 38 36 35 40 39 43 40 38 35 35 33 39 39 36 35
7 6 4 9 8 9 12 22 17 12 31 38 27 13 12 14 29 31 33 27 23 25 33 36 39 35 34 29 24 23 24 25 35 39 40 38 38 41 39 45 40 34 37 40 43 41 37 35 35
9 6 6 4 5 7 5 15 13 15 15 20 37 10 13 24 17 20 23 25 24 27 35 41 42 37 33 28 25 25 25 21 34 35 37 38 41 43 37 45 41 39 36 47 45 40 36 36 35
3 6 4 4 3 9 8 27 22 27 20 37 19 14 12 36 20 18 26 28 28 27 32 32 39 39 37 34 31 30 28 22 32 32 34 38 43 44 42 46 49 40 43 47 44 39 37 36 34
5 3 4 7 6 7 23 18 15 28 22 39 13 30 33 18 17 23 23 23 26 30 29 35 37 38 38 34 30 31 30 27 24 30 32 37 47 46 49 46 42 41 43 43 43 39 37 34 32
6 6 13 9 4 7 28 20 40 18 32 14 24 26 20 18 4 22 23 23 25 33 34 43 46 41 41 34 26 30 34 33 28 26 33 39 48 53 53 47 42 44 44 44 47 41 37 33 30
7 9 7 12 29 33 19 42 21 21 10 25 33 47 41 34 23 8 25 28 26 27 35 40 47 45 42 31 33 35 41 43 33 25 27 41 52 57 50 49 48 50 52 50 47 44 39 34 30
4 10 14 13 29 25 13 28 23 34 44 39 51 45 46 40 33 28 18 26 34 31 31 39 44 45 41 30 30 33 35 36 36 9 19 43 55 60 56 56 57 56 60 57 51 44 37 35 32
3 7 18 22 32 36 38 28 24 56 59 53 48 56 51 48 41 33 28 20 22 26 32 39 44 44 42 42 40 35 36 43 38 38 36 41 48 69 61 58 57 60 59 59 53 45 39 36 33
12 17 24 21 34 30 21 45 18 31 51 63 65 66 65 55 53 44 32 21 18 29 41 42 39 35 47 52 50 50 29 36 42 61 63 46 51 58 52 58 60 56 60 58 53 46 41 37 34
16 11 15 22 19 13 29 37 31 60 67 76 68 72 72 66 60 56 47 35 26 28 39 46 41 42 35 61 58 65 57 46 41 67 62 52 54 50 35 54 62 60 53 53 50 46 41 39 35
8 5 9 9 2 18 14 27 24 59 55 63 68 72 69 70 54 46 47 40 24 31 33 42 47 49 27 28 43 56 57 55 52 46 65 57 54 58 58 50 52 60 58 56 54 50 48 43 40
8 6 9 14 8 9 12 15 12 40 54 53 61 70 69 68 64 52 41 44 32 30 36 33 32 36 44 36 41 40 37 36 47 43 55 44 47 58 62 63 53 58 63 62 61 55 50 46 43
6 9 11 16 10 15 29 44 37 38 41 43 52 62 69 71 68 62 47 44 39 37 35 44 39 36 33 44 38 40 35 46 42 51 52 53 72 69 67 68 62 55 61 64 59 54 50 50 44
8 11 21 37 31 31 37 43 41 47 43 44 47 59 63 64 55 53 55 46 39 42 38 47 44 39 36 43 43 43 42 47 52 51 71 69 72 67 70 66 63 66 69 66 60 56 56 53 46
16 18 36 30 26 7 25 43 38 36 34 51 47 55 57 62 58 54 46 33 37 41 39 45 52 54 46 43 40 34 34 41 47 53 62 72 77 77 74 73 71 71 70 68 65 63 59 52 48
8 10 22 25 33 25 29 25 13 20 34 57 48 52 53 48 54 45 37 40 41 39 37 39 43 48 43 45 40 36 36 35 39 52 65 68 79 79 72 71 71 79 75 72 69 64 57 56 52
12 15 29 27 18 7 7 14 14 13 11 8 26 38 41 35 20 32 29 28 28 33 37 40 40 41 44 48 50 47 41 33 37 49 65 53 64 75 77 72 72 76 78 73 70 66 62 57 58
19 2 23 19 17 5 4 4 15 13 16 17 13 24 13 12 19 23 27 14 11 15 20 30 32 28 33 40 47 52 49 53 42 53 69 67 61 73 75 75 75 78 76 70 69 68 69 64 60
19 15 12 3 3 4 5 8 10 9 19 22 14 10 14 19 21 14 8 7 11 18 13 11 9 14 21 17 30 46 43 49 48 46 65 82 62 61 72 80 75 67 63 63 63 66 64 54 49
5 9 7 8 2 8 9 3 12 22 27 13 8 24 20 22 22 17 10 9 12 19 20 12 8 7 12 24 34 15 23 19 26 46 57 68 51 61 63 69 74 62 68 66 58 55 57 58 56
7 4 4 8 5 5 5 7 6 18 28 30 35 33 36 30 28 25 20 22 19 17 20 22 13 12 11 17 4 13 13 21 23 30 54 59 45 41 62 45 52 61 63 58 58 61 55 55 64
5 7 6 6 7 2 3 6 9 19 24 26 27 35 34 35 34 33 28 29 34 28 26 24 15 10 5 5 6 11 15 9 3 10 13 7 24 37 34 30 39 51 59 58 49 59 59 58 58
11 7 4 3 8 6 1 5 7 19 18 15 21 24 29 31 35 38 34 32 34 35 33 28 23 14 8 9 10 8 5 1 8 12 10 12 14 15 24 28 40 39 52 61 47 49 53 49 47
3 9 7 5 5 4 6 5 10 9 9 10 18 27 27 34 35 34 31 33 30 39 44 34 30 23 16 14 15 11 14 6 16 16 22 26 29 32 32 35 43 38 50 56 52 55 52 58 59
6 8 5 4 9 4 4 6 10 9 6 8 20 23 30 36 32 33 30 34 35 39 36 33 26 20 20 19 18 10 8 8 11 11 13 17 20 22 27 32 33 32 34 41 59 69 59 62 64
Wind_Direction_850mb
168 168 168 132 84 68 238 243 283 303 270 214 281 305 270 268 234 234 144 160 150 166 173 176 179 179 177 174 176 178 180 179 178 178 178 177 174 171 170 164 155 144 154 151 147 145 146 140 137
162 149 144 102 107 153 258 245 265 248 292 322 320 310 266 226 195 177 164 186 190 167 171 181 182 180 177 175 177 184 189 189 188 187 186 189 184 178 176 164 155 154 159 162 166 162 151 141 135
155 142 137 136 164 183 212 227 242 307 311 316 301 292 266 189 169 169 179 176 177 175 180 186 183 181 180 179 180 188 196 199 197 195 190 196 192 183 178 165 162 166 176 174 173 165 146 144 141
140 122 112 133 213 240 220 287 337 319 323 321 335 317 255 174 162 182 180 181 181 179 182 185 183 185 185 183 184 192 202 207 203 199 194 193 196 188 176 169 171 176 188 182 174 160 149 148 148
102 111 110 237 233 268 279 270 290 291 295 297 311 289 281 186 184 176 171 178 189 178 172 180 185 188 188 188 189 192 196 201 203 200 199 196 196 191 179 174 181 185 191 187 175 163 156 154 153
94 94 101 239 247 273 288 301 309 272 297 310 313 281 302 205 176 175 177 187 200 192 177 181 189 190 190 191 192 189 189 201 204 202 200 201 198 193 189 179 182 186 192 181 173 167 162 159 159
104 83 215 236 247 304 263 329 303 293 316 317 330 280 303 194 208 202 198 192 202 198 187 182 187 193 191 191 191 187 188 190 192 201 203 203 199 193 193 182 186 187 185 172 171 169 166 165 166
95 87 251 238 189 274 272 336 326 4 315 329 332 346 4 333 225 214 212 198 199 203 202 204 193 193 193 191 189 185 190 188 192 198 203 205 197 196 201 193 196 186 176 173 173 171 169 168 170
79 67 252 236 180 254 324 353 326 334 315 330 23 11 352 8 256 215 205 211 202 214 205 213 216 205 200 195 191 192 190 190 193 199 203 204 199 196 207 203 198 189 171 182 178 175 173 172 173
137 155 220 225 307 297 308 312 321 334 321 300 316 317 347 1 278 262 238 221 229 225 223 220 223 214 208 199 201 206 209 196 196 203 207 210 200 199 214 202 201 180 181 186 184 181 180 178 179
184 206 237 288 302 303 305 304 308 297 274 292 304 313 318 326 349 1 260 261 237 237 223 225 223 217 193 233 242 228 210 208 198 202 216 217 211 207 216 198 198 187 189 189 186 187 186 184 183
268 249 270 277 296 311 310 304 291 271 268 289 294 302 301 301 309 326 342 269 257 248 229 226 227 228 240 220 237 238 228 226 209 202 235 230 220 217 219 204 203 194 197 190 192 193 191 190 190
204 326 321 305 297 297 301 273 267 274 281 286 285 284 291 290 292 299 309 306 252 241 231 229 231 243 233 225 230 222 235 228 235 236 291 246 242 216 208 209 205 205 201 194 195 196 196 199 200
324 317 302 299 293 287 279 282 288 279 285 293 289 285 284 283 281 288 289 299 273 250 244 241 241 243 239 231 228 231 252 239 247 228 244 236 235 230 202 204 204 211 207 197 198 201 203 206 209
318 313 311 263 269 264 268 275 265 282 281 282 280 281 281 281 281 279 271 277 257 271 248 243 238 237 246 238 239 237 245 250 262 241 238 226 227 230 222 209 211 216 212 205 202 204 205 207 213
326 13 324 293 312 258 186 268 268 274 274 276 279 280 278 277 275 275 265 260 244 256 251 242 237 244 238 251 247 246 242 243 245 222 219 215 228 234 227 212 219 227 219 210 207 205 208 213 216
344 275 267 299 227 263 177 281 289 298 286 262 265 270 277 280 278 270 267 246 250 250 250 237 229 235 235 249 244 231 232 223 222 208 202 197 224 228 235 233 222 228 218 210 209 209 215 219 222
302 297 263 269 280 308 285 280 273 270 275 270 264 265 272 276 274 274 272 252 252 242 256 236 240 236 234 228 233 234 238 238 237 223 201 213 220 224 223 227 231 224 211 209 208 212 218 221 225
241 253 265 272 269 285 266 270 272 271 262 258 257 265 270 276 273 266 275 264 247 240 245 239 231 238 232 219 215 223 229 233 236 237 228 227 223 220 223 222 230 223 216 213 215 217 219 221 224
247 274 279 280 269 264 285 281 281 267 251 240 241 256 266 271 270 266 271 248 225 241 235 227 231 238 244 237 234 233 236 238 239 235 225 231 225 222 221 229 225 215 217 222 223 218 218 221 219
245 222 266 260 299 263 275 286 275 277 250 240 241 251 260 268 272 258 220 220 216 222 224 231 236 243 247 245 238 240 241 239 239 239 235 233 224 222 218 222 220 218 220 220 215 215 218 221 216
290 221 247 267 293 294 103 297 305 313 326 203 226 240 251 259 239 198 200 198 210 214 217 222 230 237 239 253 245 246 246 256 266 243 241 242 230 220 217 215 224 220 217 216 218 217 220 221 217
239 208 289 291 277 332 193 254 274 344 1 350 258 243 214 179 203 191 196 194 212 210 213 211 215 227 239 251 250 245 251 264 268 251 243 244 244 224 219 219 221 221 217 222 226 223 225 226 231
261 303 283 283 307 321 254 149 300 6 321 312 327 145 136 121 180 162 112 167 195 215 229 268 259 260 250 254 249 253 254 252 244 250 246 238 246 222 222 225 231 215 223 224 234 234 233 235 239
145 281 310 345 288 251 344 51 256 333 348 332 209 129 120 101 102 105 111 142 190 220 230 194 192 246 269 256 245 214 230 247 247 274 251 236 246 245 225 222 230 230 234 234 232 236 235 238 238
294 260 288 304 313 344 78 257 358 346 358 40 67 83 94 91 94 91 105 113 119 155 173 194 200 227 232 248 249 197 222 273 261 266 229 233 237 221 208 198 203 215 227 237 243 244 247 255 253
340 283 216 261 237 51 277 294 249 4 10 38 50 73 80 85 87 84 86 90 97 117 116 135 148 139 116 67 158 78 74 137 194 275 236 226 230 220 216 241 249 234 229 239 245 241 248 247 248
204 335 304 282 332 315 100 313 344 345 344 26 56 51 81 94 92 86 79 82 80 90 96 97 99 92 50 19 16 25 298 239 267 245 223 252 262 249 218 248 270 268 253 253 255 254 239 244 248
316 293 235 258 199 283 325 354 351 338 344 19 68 70 73 89 91 85 90 75 77 78 73 71 70 60 57 45 45 9 349 329 273 272 258 263 268 267 261 261 259 271 255 249 252 253 256 251 252
217 257 242 156 309 36 118 4 8 15 51 63 80 84 79 87 95 93 84 74 65 64 68 66 72 70 65 57 55 36 14 346 331 312 298 285 282 279 272 267 264 255 250 251 249 255 255 260 263